Regional Weather Roundup
Issued by NWS

Home | Current Version | Previous Version | Text Only | Print | Product List | Glossary On
Versions: 1 2 3 4 5 6 7 8 9 10 11 12 13 14 15 16 17 18 19 20 21 22 23 24 25 26 27 28 29 30 31 32 33 34 35 36 37 38 39 40 41 42 43 44 45 46 47 48 49 50
000
ASUS45 KSLC 040810
RWRUT

UTAH REGIONAL WEATHER ROUNDUP
NATIONAL WEATHER SERVICE SALT LAKE CITY UT
200 AM MDT TUE AUG 04 2015

UTZ001>011-023>025-040900-

NORTHERN UTAH

CITY           SKY/WX    TMP DP  RH WIND       PRES   REMARKS
BRIGHAM CITY   MOCLDY    60  56  88 E6        30.10S
HILL AFB       PTCLDY    59  58  96 E10       30.11S
LOGAN          CLEAR     60  55  83 S6        30.10S
OGDEN          PTCLDY    60  57  89 CALM      30.09S
PROVO AIRPORT  CLEAR     57  54  88 E6        30.12R
SALT LAKE CITY MOCLDY    63  55  75 SE6       30.08R
VERNAL         CLEAR     58  50  75 NW6       30.11F
WENDOVER       MOCLDY    66  52  59 SW9       30.07R
HEBER CITY     PTCLDY    50  46  87 CALM      30.18S
WEST JORDAN    CLEAR     61  55  82 S3        30.11R

$$

UTZ012>022-026-027-040900-

SOUTHERN/CENTRAL UTAH

CITY           SKY/WX    TMP DP  RH WIND       PRES   REMARKS
BLANDING       MOCLDY    65  51  61 N12G17    30.25F
BRYCE CANYON   CLEAR     50  44  80 W9        30.31S
CEDAR CITY     CLEAR     63  44  50 SE5       30.15R
DELTA          CLEAR     60  55  82 CALM      30.08F
HANKSVILLE     CLEAR     61  57  88 CALM      30.10F
MILFORD        CLEAR     62  47  57 CALM      30.10S
MOAB/CYNLANDS  CLEAR     62  56  80 CALM      30.07R
PRICE          CLEAR     59  49  69 N8        30.16S
ST GEORGE      MOSUNNY   84  39  20 NE3       29.93R

$$

REGIONAL REPORTS     COLORADO/ARIZONA

CITY           SKY/WX    TMP DP  RH WIND       PRES   REMARKS
CRAIG, CO      PTCLDY    54  51  90 CALM      30.19F
GRAND JUNCTION MOCLDY    66  49  54 W5        30.11R
RIFLE          MOCLDY    59  54  83 SE6       30.15R
MONTROSE       CLOUDY    66  50  56 SE13      30.19F
CORTEZ         PTCLDY    62  51  67 S6        30.23S
PAGE, AZ       CLEAR     83  40  21 W5        30.03
GRAND CANYON   CLEAR     51  39  63 CALM      30.25F
KINGMAN        CLEAR     80  36  20 S12       29.97S
FLAGSTAFF      CLEAR     54  43  66 CALM      30.29S

$$

REGIONAL REPORTS    NEVADA/IDAHO/WYOMING

CITY           SKY/WX    TMP DP  RH WIND       PRES   REMARKS
LAS VEGAS, NV  PTCLDY    90  33  13 SW9       29.79S
ELY            PTCLDY    54  40  59 SE3       30.18R
ELKO           PTCLDY    66  42  41 NE7       30.05S
POCATELLO, ID  CLEAR     61  57  87 E5        30.05S
BURLEY         PTCLDY    67  50  54 S13       29.99S
EVANSTON, WY   PTCLDY    50  46  86 W3        30.23S
ROCK SPRINGS   CLOUDY    54  50  86 W16       30.16S
KEMMERER       MOCLDY    50  50 100 W13       30.21S

$$


USA.gov is the U.S. government's official web portal to all federal, state and local government web resources and services.